Regional Weather Roundup
Issued by NWS

Home | Current Version | Previous Version | Text Only | Print | Product List | Glossary Off
Versions: 1 2 3 4 5 6 7 8 9 10 11 12 13 14 15 16 17 18 19 20 21 22 23 24 25 26 27 28 29 30 31 32 33 34 35 36 37 38 39 40 41 42 43 44 45 46 47 48 49 50

000
ASUS43 KMKX 230611
RWRWI

WISCONSIN REGIONAL WEATHER ROUNDUP
NATIONAL WEATHER SERVICE MILWAUKEE/SULLIVAN WI
100 AM CDT WED JUL 23 2014

NOTE: "FAIR" INDICATES FEW OR NO CLOUDS BELOW 12,000 FEET WITH NO
SIGNIFICANT WEATHER AND/OR OBSTRUCTIONS TO VISIBILITY.

WIZ001-002-006>008-014>016-023>028-230700-
NORTHWEST WISCONSIN

CITY           SKY/WX    TMP DP  RH WIND       PRES   REMARKS
SUPERIOR ARPT  CLEAR     54  53  98 SW3       30.16S
6HR MIN TEMP:  53; 6HR MAX TEMP:  76;

ASHLAND        CLEAR     56  55  97 CALM      30.17R
6HR MIN TEMP:  54; 6HR MAX TEMP:  74;

HAYWARD        CLEAR     56  54  93 CALM      30.18R
6HR MIN TEMP:  55; 6HR MAX TEMP:  76;

SIREN          PTCLDY    60  57  88 CALM      30.19R
6HR MIN TEMP:  60; 6HR MAX TEMP:  77;

RICE LAKE      CLEAR     61  58  91 CALM      30.18S
6HR MIN TEMP:  61; 6HR MAX TEMP:  78;

LADYSMITH      CLEAR     60  57  91 N6        30.18R
6HR MIN TEMP:  60; 6HR MAX TEMP:  76;

EAU CLAIRE     CLEAR     64  61  90 N5        30.15R
6HR MIN TEMP:  64; 6HR MAX TEMP:  80;

MENOMONIE      CLEAR     65  60  86 N3        30.15S
6HR MIN TEMP:  65; 6HR MAX TEMP:  80;

NEW RICHMOND   CLEAR     62  57  83 N5        30.18R
6HR MIN TEMP:  62; 6HR MAX TEMP:  78;

OSCEOLA        CLEAR     64  59  84 N3        30.20S
6HR MIN TEMP:  64; 6HR MAX TEMP:  78;

$$

WIZ003>005-009-010-017-018-230700-
NORTH CENTRAL WISCONSIN

CITY           SKY/WX    TMP DP  RH WIND       PRES   REMARKS
WOODRUFF         N/A     54  51  89 CALM      30.17R FOG
6HR MIN TEMP:  54; 6HR MAX TEMP:  71;

RHINELANDER    CLEAR     56  55  97 CALM      30.16R
6HR MIN TEMP:  56; 6HR MAX TEMP:  66;

EAGLE RIVER    FOG       50  50 100 CALM      30.16R VSB<1/4
6HR MIN TEMP:  50; 6HR MAX TEMP:  64;

LAND O LAKES   CLEAR     49  49  99 CALM      30.17R
6HR MIN TEMP:  49; 6HR MAX TEMP:  64;

PHILLIPS       CLEAR     57  56  96 CALM      30.16R
6HR MIN TEMP:  57; 6HR MAX TEMP:  71;

TOMAHAWK       CLEAR     55  54  95 CALM      30.17R
6HR MIN TEMP:  55; 6HR MAX TEMP:  69;

MEDFORD        CLEAR     58  56  93 N3        30.16R
6HR MIN TEMP:  58; 6HR MAX TEMP:  73;

MERRILL        CLEAR     56  56  99 N5        30.15R
6HR MIN TEMP:  56; 6HR MAX TEMP:  73;

$$

WIZ029-030-035-036-043>047-230700-
CENTRAL WISCONSIN

CITY           SKY/WX    TMP DP  RH WIND       PRES   REMARKS
WAUSAU         PTCLDY    62  58  86 N6        30.13R
6HR MIN TEMP:  62; 6HR MAX TEMP:  77;

MOSINEE        PTCLDY    61  59  94 N5        30.14S
MARSHFIELD     CLEAR     64  58  80 N5        30.14R
6HR MIN TEMP:  64; 6HR MAX TEMP:  78;

STEVENS POINT  PTCLDY    60  57  88 N3        30.14R
6HR MIN TEMP:  60; 6HR MAX TEMP:  77;

WAUPACA        PTCLDY    65  60  81 NE3       30.12R
6HR MIN TEMP:  65; 6HR MAX TEMP:  86;

WAUTOMA        CLEAR     66  59  78 N7        30.12R
6HR MIN TEMP:  66; 6HR MAX TEMP:  85;

WISC RAPIDS    CLEAR     65  58  78 NE8       30.14R
6HR MIN TEMP:  65; 6HR MAX TEMP:  81;

CAMP DOUGLAS   CLEAR     65  60  86 N6        30.13R
6HR MIN TEMP:  64; 6HR MAX TEMP:  81;

$$

WIZ011>013-019>022-031-037>040-048>050-230700-
NORTHEAST WISCONSIN

CITY           SKY/WX    TMP DP  RH WIND       PRES   REMARKS
ANTIGO         PTCLDY    55  55  97 N6        30.15R
6HR MIN TEMP:  55; 6HR MAX TEMP:  71;

STURGEON BAY   CLEAR     64  54  68 N13G20    30.09R
6HR MIN TEMP:  64; 6HR MAX TEMP:  81;

GREEN BAY      CLEAR     62  56  80 N6        30.10R
6HR MIN TEMP:  62; 6HR MAX TEMP:  85;

MANITOWOC      CLEAR     64  56  75 N6        30.10R
6HR MIN TEMP:  64; 6HR MAX TEMP:  87;

APPLETON       CLEAR     63  54  72 NE7       30.12R
CLINTONVILLE   CLEAR     63  55  77 N6        30.11R
OSHKOSH        PTCLDY    67  58  72 N10       30.11R
6HR MIN TEMP:  67; 6HR MAX TEMP:  85;

$$

WIZ032>034-041-042-053>061-230700-
SOUTHWEST WISCONSIN

CITY           SKY/WX    TMP DP  RH WIND       PRES   REMARKS
LA CROSSE      CLEAR     72  61  68 NE7       30.12R
6HR MIN TEMP:  70; 6HR MAX TEMP:  84;

SPARTA         CLEAR     67  56  68 NE7       30.14R
6HR MIN TEMP:  67; 6HR MAX TEMP:  82;

VIROQUA        FAIR      67  59  75 NE9       30.14R
6HR MIN TEMP:  67; 6HR MAX TEMP:  80;

BOSCOBEL       CLEAR     70  63  78 NE3       30.10R
6HR MIN TEMP:  67; 6HR MAX TEMP:  87;

PRAIRIE DU CHI CLEAR     68  63  85 CALM      30.10R
6HR MIN TEMP:  68; 6HR MAX TEMP:  85;

PLATTEVILLE    FAIR      68  64  87 N7        30.10R
6HR MIN TEMP:  68; 6HR MAX TEMP:  86;

$$

WIZ056-057-062-063-064-067-068-230700-
SOUTH CENTRAL WISCONSIN

CITY           SKY/WX    TMP DP  RH WIND       PRES   REMARKS
BARABOO/DELLS  CLEAR     67  57  71 N5        30.11R
6HR MIN TEMP:  67; 6HR MAX TEMP:  84;

LONE ROCK      CLEAR     74  61  63 N5        30.10R
6HR MIN TEMP:  74; 6HR MAX TEMP:  89;

WATERTOWN      CLEAR     69  62  80 N12       30.08R
6HR MIN TEMP:  69; 6HR MAX TEMP:  86;

MADISON        CLEAR     71  62  73 NE15      30.09R
6HR MIN TEMP:  71; 6HR MAX TEMP:  87;

MIDDLETON      FAIR      71  60  68 N10       30.10R
6HR MIN TEMP:  71; 6HR MAX TEMP:  87;

MONROE         CLEAR     70  64  83 N12G18    30.07R
JANESVILLE     CLEAR     75  61  60 N14G20    30.05R
$$

WIZ051-052-058>065-066-070>072-230700-
SOUTHEAST WISCONSIN

CITY           SKY/WX    TMP DP  RH WIND       PRES   REMARKS
MILWAUKEE      CLOUDY    63  57  81 NE13      30.09R
6HR MIN TEMP:  63; 6HR MAX TEMP:  87; 6HR PCP:  0.01;

WAUKESHA       CLOUDY    63  57  82 NE13G18   30.10R
MILWAUKEE/TIMM CLOUDY    63  54  72 NE14G22   30.09R
RACINE         CLOUDY    66  59  78 N18G25    30.09R
6HR MIN TEMP:  66; 6HR MAX TEMP:  87; 6HR PCP: TRACE;

BURLINGTON     CLOUDY    66  60  80 NE15G24   30.08R
6HR MIN TEMP:  66; 6HR MAX TEMP:  83; 6HR PCP:  0.03;

KENOSHA        CLOUDY    67  61  81 NE15G29   30.06R
6HR MIN TEMP:  67; 6HR MAX TEMP:  86; 6HR PCP:  0.02;

FOND DU LAC    PTCLDY    68  58  70 NE18G24   30.11R
6HR MIN TEMP:  68; 6HR MAX TEMP:  86;

SHEBOYGAN      PTCLDY    61  56  83 NE9       30.10R
6HR MIN TEMP:  62; 6HR MAX TEMP:  86;

WEST BEND      PTCLDY    64  55  72 NE7       30.09R
JUNEAU         CLEAR     67  57  70 N13       30.11R
6HR MIN TEMP:  67; 6HR MAX TEMP:  85;

$$

LSZ147-162-230700-
LAKE SUPERIOR

STATION/POSITION TIME  TEMP    WIND        PRES    WAVE
                       AIR SEA DIR/SP/G            HT/PER
                 (UTC) (F)     (DEG/KT/KT) (MB)    (FT/S)
W MID LAKE BUOY  0550   48 40   20/  8/ 10 1021.3R   1
PORT WING        0500   60     180/  2/  3 1021.0
SAXON HARBOR     0500          200/  1/  3 1020.7R
$$

LMZ867-665-643>646-230700-
LAKE MICHIGAN

STATION/POSITION TIME  TEMP    WIND        PRES    WAVE
                       AIR SEA DIR/SP/G            HT/PER
                 (UTC) (F)     (DEG/KT/KT) (MB)    (FT/S)
N MID LAKE BUOY  0550   57 53  350/ 12/ 16 1017.4R   3/ 5
NORTHPORT PIER   0500   64     350/ 19/ 23 1018.3R
KEWAUNEE LAKESHO 0500   56      20/  4/  7 1019.2R
SHEBOYGAN LAKESH 0600   58      10/ 14/ 15 1019.1R
PORT WASHINGTON  0500           40/ 15     1018.6R
ATWATER BUOY     0600   52     350/  8     1019.6R
MILWAUKEE LAKESH 0500           20/ 17/ 20   N/A
S MID LAKE BUOY  0550   65 63  360/ 25/ 31 1015.6R   3/ 4
KENOSHA   LAKESH 0600   60      20/ 16/ 17   N/A
$$

TC  - TEMPERATURE IN CELSIUS
VSB - VISIBILITY IN STATUTE MILES
WCI - WIND CHILL INDEX
HX  - HEAT INDEX



USA.gov is the U.S. government's official web portal to all federal, state and local government web resources and services.